This is the latest recevied weather packets stored in our database for station/object N4JTC. If no packets are shown the sender has not sent any weather packets the latest 10 day(s).
| Time | Temp. | Humidity | Pressure | Rain* | Wind** | Luminosity | Snow |
|---|---|---|---|---|---|---|---|
| 1778075103 | 25° C | 84% | 1016.6 hPa | 0 mm | - | 450 W/m² | - |
| 1778074502 | 24.44° C | 86% | 1016.8 hPa | 0 mm | - | 341 W/m² | - |
| 1778073904 | 25° C | 86% | 1016.4 hPa | 0 mm | - | 213 W/m² | - |
| 1778073602 | 24.44° C | 86% | 1016.6 hPa | 0 mm | - | 357 W/m² | - |
| 1778073303 | 23.89° C | 87% | 1016.2 hPa | 0 mm | - | 173 W/m² | - |
| 1778073003 | 23.89° C | 88% | 1016.1 hPa | 0 mm | - | 181 W/m² | - |
| 1778072703 | 23.89° C | 88% | 1016.2 hPa | 0 mm | - | 138 W/m² | - |
| 1778072103 | 23.33° C | 90% | 1016.1 hPa | 0 mm | - | 96 W/m² | - |
| 1778071803 | 23.33° C | 91% | 1016.1 hPa | 0 mm | - | 164 W/m² | - |
| 1778071503 | 23.33° C | 93% | 1016.1 hPa | 0 mm | - | 177 W/m² | - |
| 1778071203 | 23.33° C | 93% | 1016 hPa | 0 mm | - | 135 W/m² | - |
| 1778070904 | 22.78° C | 95% | 1016 hPa | 0 mm | - | 123 W/m² | - |
| 1778070603 | 22.22° C | 95% | 1016 hPa | 0 mm | - | 133 W/m² | - |
| 1778070302 | 22.22° C | 95% | 1015.6 hPa | 0 mm | - | 101 W/m² | - |
| 1778070003 | 21.67° C | 95% | 1015.7 hPa | 0 mm | - | 97 W/m² | - |
| 1778069703 | 21.67° C | 95% | 1015.5 hPa | 0 mm | - | 92 W/m² | - |
| 1778069403 | 21.67° C | 95% | 1015.5 hPa | 0 mm | - | 80 W/m² | - |
| 1778069103 | 21.67° C | 95% | 1015.2 hPa | 0 mm | - | 57 W/m² | - |
| 1778068804 | 21.67° C | 95% | 1015.1 hPa | 0 mm | - | 70 W/m² | - |
| 1778068503 | 21.67° C | 95% | 1015.2 hPa | 0 mm | - | 58 W/m² | - |
| 1778068203 | 21.67° C | 94% | 1015.1 hPa | 0 mm | - | 53 W/m² | - |
| 1778067903 | 21.67° C | 95% | 1015.2 hPa | 0 mm | - | 46 W/m² | - |
| 1778067604 | 22.22° C | 95% | 1015 hPa | 0 mm | - | 36 W/m² | - |
| 1778067303 | 22.22° C | 95% | 1015 hPa | 0 mm | - | 29 W/m² | - |
| 1778067003 | 22.22° C | 95% | 1014.7 hPa | 0 mm | - | 23 W/m² | - |
* Rain latest hour (hover to see other rain measurements)
** Current wind speed in m/s (hover to see current wind gust speed)